Time,TemperatureF,DewpointF,PressureIn,WindDirection,WindDirectionDegrees,WindSpeedMPH,WindSpeedGustMPH,Humidity,HourlyPrecipIn,Conditions,Clouds,dailyrainin,SoftwareType,DateUTC
2013-08-04 00:07:00,71.6,70.0,30.05,SW,232,0.0,0.0,93,0.00,,,0.00,weatherlink.com 1.10,2013-08-04 05:07:00,
2013-08-04 00:22:00,71.5,69.0,30.05,SW,232,0.0,0.0,93,0.00,,,0.00,weatherlink.com 1.10,2013-08-04 05:22:00,
2013-08-04 00:37:00,71.4,69.0,30.05,SW,232,0.0,0.0,93,0.00,,,0.00,weatherlink.com 1.10,2013-08-04 05:37:00,
2013-08-04 00:52:00,71.2,69.0,30.05,SW,232,0.0,0.0,94,0.00,,,0.00,weatherlink.com 1.10,2013-08-04 05:52:00,
2013-08-04 01:07:00,71.4,70.0,30.05,SW,232,0.0,0.0,94,0.00,,,0.00,weatherlink.com 1.10,2013-08-04 06:07:00,
2013-08-04 01:22:00,71.4,70.0,30.05,SW,232,0.0,0.0,94,0.00,,,0.00,weatherlink.com 1.10,2013-08-04 06:22:00,
2013-08-04 01:37:00,71.3,70.0,30.05,SW,232,0.0,0.0,94,0.00,,,0.00,weatherlink.com 1.10,2013-08-04 06:37:00,
2013-08-04 01:52:00,71.0,69.0,30.05,SW,232,0.0,0.0,93,0.00,,,0.00,weatherlink.com 1.10,2013-08-04 06:52:00,
2013-08-04 02:07:00,70.4,68.0,30.04,SW,232,0.0,0.0,93,0.00,,,0.00,weatherlink.com 1.10,2013-08-04 07:07:00,
2013-08-04 02:22:00,69.7,68.0,30.04,SW,232,0.0,0.0,93,0.00,,,0.00,weatherlink.com 1.10,2013-08-04 07:22:00,
2013-08-04 02:37:00,69.2,67.0,30.04,SW,232,0.0,0.0,93,0.00,,,0.00,weatherlink.com 1.10,2013-08-04 07:37:00,
2013-08-04 02:52:00,68.6,67.0,30.03,SW,232,0.0,0.0,93,0.00,,,0.00,weatherlink.com 1.10,2013-08-04 07:52:00,
2013-08-04 03:07:00,68.3,66.0,30.03,SW,232,0.0,0.0,93,0.00,,,0.00,weatherlink.com 1.10,2013-08-04 08:07:00,
2013-08-04 03:22:00,67.9,66.0,30.03,SW,232,0.0,0.0,93,0.00,,,0.00,weatherlink.com 1.10,2013-08-04 08:22:00,
2013-08-04 03:37:00,67.5,66.0,30.03,SW,232,0.0,0.0,93,0.00,,,0.00,weatherlink.com 1.10,2013-08-04 08:37:00,
2013-08-04 03:52:00,67.2,66.0,30.04,SW,232,0.0,0.0,94,0.00,,,0.00,weatherlink.com 1.10,2013-08-04 08:52:00,
2013-08-04 04:07:00,67.2,66.0,30.03,SW,232,0.0,0.0,94,0.00,,,0.00,weatherlink.com 1.10,2013-08-04 09:07:00,
2013-08-04 04:22:00,67.2,66.0,30.04,SW,232,0.0,0.0,94,0.00,,,0.00,weatherlink.com 1.10,2013-08-04 09:22:00,
2013-08-04 04:37:00,67.2,66.0,30.05,SW,232,0.0,0.0,94,0.00,,,0.00,weatherlink.com 1.10,2013-08-04 09:37:00,
2013-08-04 04:52:00,67.1,65.0,30.05,SW,232,0.0,0.0,94,0.00,,,0.00,weatherlink.com 1.10,2013-08-04 09:52:00,
2013-08-04 05:07:00,67.0,65.0,30.06,NNW,328,0.0,1.0,94,0.00,,,0.00,weatherlink.com 1.10,2013-08-04 10:07:00,
2013-08-04 05:23:00,66.9,65.0,30.07,North,11,0.0,0.0,94,0.00,,,0.00,weatherlink.com 1.10,2013-08-04 10:23:00,
2013-08-04 05:37:00,66.7,65.0,30.08,North,11,0.0,0.0,94,0.00,,,0.00,weatherlink.com 1.10,2013-08-04 10:37:00,
2013-08-04 05:53:00,66.5,65.0,30.09,North,11,0.0,0.0,94,0.00,,,0.00,weatherlink.com 1.10,2013-08-04 10:53:00,
2013-08-04 06:08:00,66.3,65.0,30.09,North,11,0.0,0.0,94,0.00,,,0.00,weatherlink.com 1.10,2013-08-04 11:08:00,
2013-08-04 06:23:00,66.1,64.0,30.10,North,11,0.0,0.0,94,0.00,,,0.00,weatherlink.com 1.10,2013-08-04 11:23:00,
2013-08-04 06:37:00,65.9,64.0,30.09,North,11,0.0,0.0,94,0.00,,,0.00,weatherlink.com 1.10,2013-08-04 11:37:00,
2013-08-04 06:53:00,66.0,64.0,30.09,North,11,0.0,0.0,94,0.00,,,0.00,weatherlink.com 1.10,2013-08-04 11:53:00,
2013-08-04 07:07:00,66.5,65.0,30.10,NNW,342,0.0,1.0,95,0.00,,,0.00,weatherlink.com 1.10,2013-08-04 12:07:00,
2013-08-04 07:23:00,67.4,66.0,30.10,SW,218,0.0,3.0,94,0.00,,,0.00,weatherlink.com 1.10,2013-08-04 12:23:00,
2013-08-04 07:37:00,68.6,66.0,30.10,NNW,332,0.0,4.0,91,0.00,,,0.00,weatherlink.com 1.10,2013-08-04 12:37:00,
2013-08-04 07:53:00,69.5,66.0,30.10,NE,39,0.0,4.0,89,0.00,,,0.00,weatherlink.com 1.10,2013-08-04 12:53:00,
2013-08-04 08:08:00,69.9,66.0,30.11,ENE,72,3.0,5.0,86,0.00,,,0.00,weatherlink.com 1.10,2013-08-04 13:08:00,
2013-08-04 08:23:00,70.2,66.0,30.11,ENE,70,0.0,5.0,85,0.00,,,0.00,weatherlink.com 1.10,2013-08-04 13:23:00,
2013-08-04 08:38:00,70.7,66.0,30.11,North,9,1.0,6.0,84,0.00,,,0.00,weatherlink.com 1.10,2013-08-04 13:38:00,
2013-08-04 08:53:00,71.2,66.0,30.11,NNE,29,0.0,5.0,84,0.00,,,0.00,weatherlink.com 1.10,2013-08-04 13:53:00,
2013-08-04 09:08:00,71.7,66.0,30.11,NE,38,0.0,3.0,82,0.00,,,0.00,weatherlink.com 1.10,2013-08-04 14:08:00,
2013-08-04 09:23:00,72.1,65.0,30.11,ENE,63,1.0,6.0,78,0.00,,,0.00,weatherlink.com 1.10,2013-08-04 14:23:00,
2013-08-04 09:38:00,72.7,66.0,30.11,East,79,1.0,4.0,78,0.00,,,0.00,weatherlink.com 1.10,2013-08-04 14:38:00,
2013-08-04 09:53:00,73.2,65.0,30.12,NE,43,1.0,5.0,76,0.00,,,0.00,weatherlink.com 1.10,2013-08-04 14:53:00,
2013-08-04 10:08:00,73.7,66.0,30.12,NE,38,0.0,3.0,76,0.00,,,0.00,weatherlink.com 1.10,2013-08-04 15:08:00,
2013-08-04 10:23:00,74.4,65.0,30.12,ENE,62,0.0,5.0,72,0.00,,,0.00,weatherlink.com 1.10,2013-08-04 15:23:00,
2013-08-04 10:38:00,74.9,65.0,30.12,NE,43,1.0,7.0,70,0.00,,,0.00,weatherlink.com 1.10,2013-08-04 15:38:00,
2013-08-04 10:53:00,75.5,64.0,30.12,WNW,284,0.0,5.0,67,0.00,,,0.00,weatherlink.com 1.10,2013-08-04 15:53:00,
2013-08-04 11:08:00,75.8,64.0,30.12,NE,55,1.0,5.0,66,0.00,,,0.00,weatherlink.com 1.10,2013-08-04 16:08:00,
2013-08-04 11:23:00,76.3,64.0,30.11,NNE,29,0.0,5.0,65,0.00,,,0.00,weatherlink.com 1.10,2013-08-04 16:23:00,
2013-08-04 11:38:00,76.6,63.0,30.12,NNW,346,0.0,7.0,64,0.00,,,0.00,weatherlink.com 1.10,2013-08-04 16:38:00,
2013-08-04 11:53:00,76.7,64.0,30.11,NE,37,4.0,7.0,65,0.00,,,0.00,weatherlink.com 1.10,2013-08-04 16:53:00,
2013-08-04 12:08:00,77.1,64.0,30.11,NNW,348,1.0,6.0,64,0.00,,,0.00,weatherlink.com 1.10,2013-08-04 17:08:00,
2013-08-04 12:23:00,77.6,63.0,30.11,NE,48,4.0,8.0,62,0.00,,,0.00,weatherlink.com 1.10,2013-08-04 17:23:00,
2013-08-04 12:38:00,77.8,64.0,30.10,NE,49,1.0,7.0,63,0.00,,,0.00,weatherlink.com 1.10,2013-08-04 17:38:00,
2013-08-04 12:53:00,78.1,66.0,30.09,NE,45,0.0,6.0,66,0.00,,,0.00,weatherlink.com 1.10,2013-08-04 17:53:00,
2013-08-04 13:08:00,78.4,65.0,30.09,NE,49,0.0,7.0,64,0.00,,,0.00,weatherlink.com 1.10,2013-08-04 18:08:00,
2013-08-04 13:23:00,78.3,64.0,30.09,East,90,2.0,6.0,62,0.00,,,0.00,weatherlink.com 1.10,2013-08-04 18:23:00,
2013-08-04 13:38:00,78.1,64.0,30.09,NW,325,0.0,7.0,63,0.00,,,0.00,weatherlink.com 1.10,2013-08-04 18:38:00,
2013-08-04 13:53:00,78.2,65.0,30.09,NE,36,0.0,4.0,64,0.00,,,0.00,weatherlink.com 1.10,2013-08-04 18:53:00,
2013-08-04 14:08:00,78.2,65.0,30.09,North,354,2.0,4.0,63,0.00,,,0.00,weatherlink.com 1.10,2013-08-04 19:08:00,
2013-08-04 14:23:00,78.4,65.0,30.09,NNW,343,2.0,5.0,63,0.00,,,0.00,weatherlink.com 1.10,2013-08-04 19:23:00,
2013-08-04 14:38:00,79.0,66.0,30.09,NNE,24,3.0,3.0,65,0.00,,,0.00,weatherlink.com 1.10,2013-08-04 19:38:00,
2013-08-04 14:54:00,79.7,65.0,30.09,NNW,330,4.0,6.0,61,0.00,,,0.00,weatherlink.com 1.10,2013-08-04 19:54:00,
2013-08-04 15:09:00,79.9,66.0,30.08,NNE,24,1.0,6.0,62,0.00,,,0.00,weatherlink.com 1.10,2013-08-04 20:09:00,
2013-08-04 15:24:00,80.3,66.0,30.08,WNW,285,0.0,4.0,62,0.00,,,0.00,weatherlink.com 1.10,2013-08-04 20:24:00,
2013-08-04 15:38:00,80.3,65.0,30.08,NNW,339,4.0,5.0,60,0.00,,,0.00,weatherlink.com 1.10,2013-08-04 20:38:00,
2013-08-04 15:54:00,80.6,63.0,30.07,NNE,12,1.0,5.0,56,0.00,,,0.00,weatherlink.com 1.10,2013-08-04 20:54:00,
2013-08-04 16:09:00,80.2,64.0,30.07,NE,36,0.0,2.0,58,0.00,,,0.00,weatherlink.com 1.10,2013-08-04 21:09:00,
2013-08-04 16:24:00,80.1,65.0,30.07,North,11,0.0,4.0,61,0.00,,,0.00,weatherlink.com 1.10,2013-08-04 21:24:00,
2013-08-04 16:39:00,80.0,65.0,30.07,NE,51,2.0,5.0,61,0.00,,,0.00,weatherlink.com 1.10,2013-08-04 21:39:00,
2013-08-04 16:54:00,79.8,66.0,30.07,NE,53,0.0,6.0,62,0.00,,,0.00,weatherlink.com 1.10,2013-08-04 21:54:00,
2013-08-04 17:09:00,80.0,65.0,30.07,NNE,28,0.0,5.0,60,0.00,,,0.00,weatherlink.com 1.10,2013-08-04 22:09:00,
2013-08-04 17:25:00,80.5,66.0,30.06,NNE,26,2.0,4.0,61,0.00,,,0.00,weatherlink.com 1.10,2013-08-04 22:25:00,
2013-08-04 17:39:00,80.2,65.0,30.06,NNE,32,0.0,3.0,61,0.00,,,0.00,weatherlink.com 1.10,2013-08-04 22:39:00,
2013-08-04 17:53:00,79.3,66.0,30.06,NNW,341,1.0,3.0,63,0.00,,,0.00,weatherlink.com 1.10,2013-08-04 22:53:00,
2013-08-04 18:08:00,78.7,65.0,30.06,NW,316,0.0,2.0,63,0.00,,,0.00,weatherlink.com 1.10,2013-08-04 23:08:00,
2013-08-04 18:24:00,78.7,65.0,30.07,North,4,0.0,2.0,63,0.00,,,0.00,weatherlink.com 1.10,2013-08-04 23:24:00,
2013-08-04 18:39:00,77.9,67.0,30.07,North,4,0.0,0.0,70,0.00,,,0.00,weatherlink.com 1.10,2013-08-04 23:39:00,
2013-08-04 18:54:00,76.7,68.0,30.07,North,4,0.0,0.0,75,0.00,,,0.00,weatherlink.com 1.10,2013-08-04 23:54:00,
2013-08-04 19:09:00,75.7,66.0,30.07,NW,313,0.0,2.0,71,0.00,,,0.00,weatherlink.com 1.10,2013-08-05 00:09:00,
2013-08-04 19:23:00,74.9,67.0,30.07,NW,313,0.0,1.0,75,0.00,,,0.00,weatherlink.com 1.10,2013-08-05 00:23:00,
2013-08-04 19:39:00,73.9,66.0,30.07,NW,313,0.0,0.0,77,0.00,,,0.00,weatherlink.com 1.10,2013-08-05 00:39:00,
2013-08-04 19:54:00,72.6,66.0,30.07,NW,313,0.0,0.0,79,0.00,,,0.00,weatherlink.com 1.10,2013-08-05 00:54:00,
2013-08-04 20:08:00,71.2,65.0,30.06,NW,313,0.0,0.0,80,0.00,,,0.00,weatherlink.com 1.10,2013-08-05 01:08:00,
2013-08-04 20:24:00,70.1,64.0,30.07,NW,313,0.0,0.0,82,0.00,,,0.00,weatherlink.com 1.10,2013-08-05 01:24:00,
2013-08-04 20:39:00,69.0,64.0,30.07,NW,313,0.0,0.0,83,0.00,,,0.00,weatherlink.com 1.10,2013-08-05 01:39:00,
2013-08-04 20:53:00,68.1,64.0,30.07,NW,313,0.0,0.0,85,0.00,,,0.00,weatherlink.com 1.10,2013-08-05 01:53:00,
2013-08-04 21:09:00,67.4,64.0,30.07,NW,313,0.0,0.0,87,0.00,,,0.00,weatherlink.com 1.10,2013-08-05 02:09:00,
2013-08-04 21:24:00,66.8,63.0,30.08,NW,313,0.0,0.0,88,0.00,,,0.00,weatherlink.com 1.10,2013-08-05 02:24:00,
2013-08-04 21:39:00,66.7,63.0,30.08,NW,313,0.0,0.0,89,0.00,,,0.00,weatherlink.com 1.10,2013-08-05 02:39:00,
2013-08-04 21:54:00,66.5,63.0,30.08,NW,313,0.0,0.0,89,0.00,,,0.00,weatherlink.com 1.10,2013-08-05 02:54:00,
2013-08-04 22:08:00,66.5,64.0,30.08,NW,313,0.0,0.0,90,0.00,,,0.00,weatherlink.com 1.10,2013-08-05 03:08:00,
2013-08-04 22:24:00,66.5,64.0,30.08,NW,313,0.0,0.0,90,0.00,,,0.00,weatherlink.com 1.10,2013-08-05 03:24:00,
2013-08-04 22:39:00,66.3,63.0,30.08,NW,313,0.0,0.0,90,0.00,,,0.00,weatherlink.com 1.10,2013-08-05 03:39:00,
2013-08-04 22:54:00,66.2,63.0,30.08,NW,313,0.0,0.0,90,0.00,,,0.00,weatherlink.com 1.10,2013-08-05 03:54:00,
2013-08-04 23:09:00,66.2,64.0,30.08,NW,313,0.0,0.0,91,0.00,,,0.00,weatherlink.com 1.10,2013-08-05 04:09:00,
2013-08-04 23:24:00,66.0,63.0,30.08,NW,313,0.0,0.0,90,0.00,,,0.00,weatherlink.com 1.10,2013-08-05 04:24:00,
2013-08-04 23:39:00,65.9,63.0,30.08,NW,313,0.0,0.0,91,0.00,,,0.00,weatherlink.com 1.10,2013-08-05 04:39:00,
2013-08-04 23:54:00,65.9,63.0,30.08,NW,313,0.0,0.0,91,0.00,,,0.00,weatherlink.com 1.10,2013-08-05 04:54:00,